Retour au catalogue

HAWK-7B

ActifMilitaireSSO
NORAD 56193·PAYLOAD·🇺🇸 United States

Lancé Apr 15, 2023 depuis Vandenberg Space Force Base

Loading…

Prochains Passages (prochaines 24 heures)

TLE

FraisSource: Space-Track

Époque: Sep 14, 2026, 10:45 UTC

1 56193U 23054R   26257.44808740  .00004506  00000-0  16673-3 0  9996
2 56193  97.2571 140.7919 0003821  91.3400 268.8278 15.28169029190654

Suivez HAWK-7B en temps réel avec AllMySat

Download on the App Store